When you browse on this site, cookies collect data to enhance your experience and personalize the content and advertising you see.
Visit our Privacy Policy to learn more. By continuing to use the site, you agree to this use of cookies and data.
  • Em Portugal
  • Lista de países
  • Para 7 dias
  • Temperatura da água
  • Mapa do tempo
  • Widgets de tempo
  • user-avatar
    Iniciar Sessão

    Previsão horária em Goryaynovka

    Hoje, 17 Setembro, Terça-feira

    Tempo Temperatura Precipitação Vento Pressão Humidade
    00:00 +8°C° 0 mm 4 m/s 736 mmHg 93%
    01:00 +8°C° 0 mm 5 m/s 736 mmHg 94%
    02:00 +8°C° 0 mm 5 m/s 736 mmHg 94%
    03:00 +7°C° 0 mm 5 m/s 736 mmHg 95%
    04:00 +7°C° 0 mm 5 m/s 736 mmHg 95%
    05:00 +7°C° 0 mm 5 m/s 736 mmHg 95%
    06:00 +7°C° 0 mm 5 m/s 736 mmHg 95%
    07:00 +8°C° 0 mm 5 m/s 736 mmHg 91%
    08:00 +10°C° 0 mm 6 m/s 736 mmHg 87%
    09:00 +11°C° 0 mm 7 m/s 736 mmHg 83%
    10:00 +11°C° 0.2 mm 7 m/s 735 mmHg 79%
    11:00 +12°C° 0.2 mm 7 m/s 735 mmHg 75%
    12:00 +12°C° 0.2 mm 7 m/s 735 mmHg 71%
    13:00 +14°C° 0.2 mm 7 m/s 735 mmHg 68%
    14:00 +14°C° 0.2 mm 7 m/s 735 mmHg 66%
    15:00 +14°C° 0.2 mm 7 m/s 735 mmHg 63%
    16:00 +13°C° 0.1 mm 6 m/s 735 mmHg 67%
    17:00 +12°C° 0.1 mm 5 m/s 735 mmHg 70%
    18:00 +11°C° 0.1 mm 4 m/s 735 mmHg 73%
    19:00 +10°C° 0 mm 4 m/s 735 mmHg 75%
    20:00 +8°C° 0 mm 4 m/s 735 mmHg 77%
    21:00 +8°C° 0 mm 3 m/s 736 mmHg 79%
    22:00 +8°C° 0 mm 3 m/s 736 mmHg 81%
    23:00 +7°C° 0 mm 3 m/s 736 mmHg 83%

    Amanhã, 18 Setembro, Quarta-feira

    Tempo Temperatura Precipitação Vento Pressão Humidade
    00:00 +7°C° 0 mm 3 m/s 736 mmHg 85%
    01:00 +7°C° 0 mm 3 m/s 736 mmHg 86%
    02:00 +5°C° 0 mm 3 m/s 736 mmHg 87%
    03:00 +5°C° 0 mm 3 m/s 736 mmHg 88%
    04:00 +5°C° 0 mm 3 m/s 736 mmHg 88%
    05:00 +5°C° 0 mm 3 m/s 736 mmHg 88%
    06:00 +5°C° 0 mm 3 m/s 736 mmHg 87%
    07:00 +7°C° 0 mm 4 m/s 736 mmHg 81%
    08:00 +8°C° 0 mm 4 m/s 736 mmHg 76%
    09:00 +10°C° 0 mm 5 m/s 736 mmHg 70%
    10:00 +10°C° 0.3 mm 6 m/s 736 mmHg 67%
    11:00 +11°C° 0.3 mm 6 m/s 736 mmHg 64%
    12:00 +12°C° 0.3 mm 7 m/s 736 mmHg 61%
    13:00 +13°C° 0.1 mm 6 m/s 735 mmHg 59%
    14:00 +13°C° 0.1 mm 5 m/s 735 mmHg 57%
    15:00 +14°C° 0.1 mm 4 m/s 735 mmHg 55%
    16:00 +13°C° 0.1 mm 4 m/s 735 mmHg 62%
    17:00 +11°C° 0.1 mm 3 m/s 734 mmHg 69%
    18:00 +10°C° 0.1 mm 2 m/s 734 mmHg 76%
    19:00 +10°C° 0.2 mm 2 m/s 733 mmHg 80%
    20:00 +9°C° 0.2 mm 2 m/s 733 mmHg 83%
    21:00 +10°C° 0.2 mm 1 m/s 732 mmHg 87%
    22:00 +10°C° 0.2 mm 1 m/s 731 mmHg 88%
    23:00 +10°C° 0.2 mm 1 m/s 730 mmHg 90%

    Depois de amanhã, 19 Setembro, Quinta-feira

    Tempo Temperatura Precipitação Vento Pressão Humidade
    00:00 +9°C° 0.2 mm 1 m/s 730 mmHg 92%
    01:00 +8°C° 0.4 mm 2 m/s 730 mmHg 92%
    02:00 +8°C° 0.4 mm 3 m/s 729 mmHg 92%
    03:00 +7°C° 0.4 mm 4 m/s 729 mmHg 92%
    04:00 +7°C° 0.2 mm 5 m/s 730 mmHg 91%
    05:00 +7°C° 0.2 mm 5 m/s 731 mmHg 90%
    06:00 +7°C° 0.2 mm 5 m/s 732 mmHg 88%
    07:00 +7°C° 0 mm 5 m/s 733 mmHg 87%
    08:00 +8°C° 0 mm 6 m/s 734 mmHg 85%
    09:00 +8°C° 0 mm 6 m/s 736 mmHg 84%
    10:00 +9°C° 0.1 mm 6 m/s 737 mmHg 80%
    11:00 +9°C° 0.1 mm 6 m/s 737 mmHg 77%
    12:00 +10°C° 0.1 mm 7 m/s 738 mmHg 74%
    13:00 +9°C° 0.2 mm 6 m/s 739 mmHg 76%
    14:00 +9°C° 0.2 mm 6 m/s 740 mmHg 77%
    15:00 +8°C° 0.2 mm 6 m/s 740 mmHg 79%
    16:00 +8°C° 0 mm 5 m/s 741 mmHg 81%
    17:00 +7°C° 0 mm 4 m/s 742 mmHg 84%
    18:00 +8°C° 0 mm 3 m/s 742 mmHg 86%
    19:00 +7°C° 0 mm 3 m/s 743 mmHg 88%
    20:00 +7°C° 0 mm 3 m/s 743 mmHg 90%
    21:00 +5°C° 0 mm 3 m/s 743 mmHg 92%
    22:00 +5°C° 0.1 mm 3 m/s 744 mmHg 92%
    23:00 +5°C° 0.1 mm 3 m/s 744 mmHg 92%

    20 Setembro, Sexta-feira

    Tempo Temperatura Precipitação Vento Pressão Humidade
    00:00 +5°C° 0.1 mm 3 m/s 744 mmHg 92%
    01:00 +5°C° 0 mm 3 m/s 744 mmHg 93%
    02:00 +4°C° 0 mm 3 m/s 744 mmHg 94%
    03:00 +5°C° 0 mm 2 m/s 745 mmHg 95%
    04:00 +4°C° 0 mm 2 m/s 745 mmHg 95%
    05:00 +4°C° 0 mm 2 m/s 745 mmHg 95%
    06:00 +4°C° 0 mm 2 m/s 745 mmHg 95%
    07:00 +5°C° 0 mm 2 m/s 745 mmHg 90%
    08:00 +6°C° 0 mm 2 m/s 745 mmHg 85%
    09:00 +7°C° 0 mm 3 m/s 745 mmHg 80%
    10:00 +8°C° 0 mm 3 m/s 745 mmHg 74%
    11:00 +9°C° 0 mm 3 m/s 745 mmHg 69%
    12:00 +10°C° 0 mm 3 m/s 745 mmHg 64%
    13:00 +10°C° 0 mm 3 m/s 745 mmHg 67%
    14:00 +10°C° 0 mm 3 m/s 745 mmHg 70%
    15:00 +9°C° 0 mm 3 m/s 745 mmHg 73%
    16:00 +8°C° 0 mm 2 m/s 745 mmHg 77%
    17:00 +8°C° 0 mm 2 m/s 745 mmHg 81%
    18:00 +8°C° 0 mm 1 m/s 745 mmHg 85%
    19:00 +7°C° 0 mm 1 m/s 745 mmHg 86%
    20:00 +6°C° 0 mm 2 m/s 745 mmHg 88%
    21:00 +5°C° 0 mm 2 m/s 745 mmHg 90%
    22:00 +5°C° 0 mm 2 m/s 746 mmHg 90%
    23:00 +6°C° 0 mm 1 m/s 746 mmHg 91%

    21 Setembro, Sábado

    Tempo Temperatura Precipitação Vento Pressão Humidade
    00:00 +6°C° 0 mm 1 m/s 746 mmHg 91%
    01:00 +4°C° 0 mm 2 m/s 746 mmHg 92%
    02:00 +4°C° 0 mm 2 m/s 746 mmHg 92%
    03:00 +3°C° 0 mm 2 m/s 746 mmHg 92%
    04:00 +3°C° 0 mm 2 m/s 746 mmHg 94%
    05:00 +2°C° 0 mm 2 m/s 746 mmHg 95%
    06:00 +1°C° 0 mm 2 m/s 746 mmHg 96%
    07:00 +3°C° 0 mm 2 m/s 746 mmHg 90%
    08:00 +3°C° 0 mm 3 m/s 746 mmHg 83%
    09:00 +5°C° 0 mm 3 m/s 746 mmHg 77%
    10:00 +7°C° 0 mm 3 m/s 746 mmHg 71%
    11:00 +8°C° 0 mm 3 m/s 746 mmHg 66%
    12:00 +8°C° 0 mm 4 m/s 746 mmHg 61%
    13:00 +9°C° 0.1 mm 3 m/s 746 mmHg 59%
    14:00 +9°C° 0.1 mm 3 m/s 746 mmHg 57%
    15:00 +9°C° 0.1 mm 3 m/s 746 mmHg 55%
    16:00 +8°C° 0.1 mm 3 m/s 746 mmHg 61%
    17:00 +7°C° 0.1 mm 3 m/s 746 mmHg 67%
    18:00 +5°C° 0.1 mm 3 m/s 746 mmHg 73%
    19:00 +5°C° 0.1 mm 3 m/s 746 mmHg 78%
    20:00 +4°C° 0.1 mm 3 m/s 747 mmHg 83%
    21:00 +4°C° 0.1 mm 4 m/s 747 mmHg 89%
    22:00 +4°C° 0.5 mm 3 m/s 747 mmHg 89%
    23:00 +4°C° 0.5 mm 3 m/s 747 mmHg 90%

    22 Setembro, Domingo

    Tempo Temperatura Precipitação Vento Pressão Humidade
    00:00 +3°C° 0.5 mm 3 m/s 747 mmHg 91%
    01:00 +3°C° 0.3 mm 3 m/s 747 mmHg 90%
    02:00 +3°C° 0.3 mm 3 m/s 747 mmHg 90%
    03:00 +2°C° 0.3 mm 3 m/s 747 mmHg 89%
    04:00 +2°C° 0 mm 3 m/s 748 mmHg 89%
    05:00 +1°C° 0 mm 3 m/s 748 mmHg 88%
    06:00 +1°C° 0 mm 2 m/s 749 mmHg 88%
    07:00 +2°C° 0 mm 3 m/s 749 mmHg 83%
    08:00 +3°C° 0 mm 3 m/s 749 mmHg 78%
    09:00 +4°C° 0 mm 3 m/s 749 mmHg 73%
    10:00 +7°C° 0 mm 3 m/s 750 mmHg 67%
    11:00 +8°C° 0 mm 3 m/s 750 mmHg 61%
    12:00 +9°C° 0 mm 3 m/s 750 mmHg 55%
    13:00 +9°C° 0 mm 3 m/s 750 mmHg 53%
    14:00 +9°C° 0 mm 3 m/s 750 mmHg 51%
    15:00 +8°C° 0 mm 4 m/s 750 mmHg 49%
    16:00 +8°C° 0 mm 3 m/s 750 mmHg 54%
    17:00 +7°C° 0 mm 2 m/s 750 mmHg 58%
    18:00 +6°C° 0 mm 2 m/s 750 mmHg 63%
    19:00 +5°C° 0 mm 2 m/s 751 mmHg 66%
    20:00 +4°C° 0 mm 2 m/s 751 mmHg 69%
    21:00 +4°C° 0 mm 2 m/s 751 mmHg 72%
    22:00 +3°C° 0 mm 2 m/s 751 mmHg 72%
    23:00 +2°C° 0 mm 3 m/s 751 mmHg 73%
    Mostrar mais